Temperature
22 22 22 21 20 20 22 23 24 24 23 23 23 22 21 21 21 19 20 20 20 20 20 20 20 20 20 20 20 20 20 20 20 20 20 20 20 20 20 20 20 20 19 19 19 19 19 19 19
22 22 22 22 20 20 22 23 23 24 24 24 23 22 21 21 20 19 19 20 20 20 20 20 20 20 20 20 20 20 20 20 20 20 20 20 20 20 20 20 19 19 19 19 19 19 19 19 19
23 22 22 20 21 21 22 22 23 24 24 24 22 21 21 20 20 20 20 20 20 20 20 20 20 20 20 20 20 20 20 20 20 20 20 20 20 20 19 19 19 19 19 19 19 19 19 19 19
23 22 22 21 22 22 22 22 23 24 23 23 22 21 20 20 20 20 20 20 20 20 20 20 20 20 20 20 20 20 20 20 20 20 20 20 20 19 19 19 19 19 19 19 19 19 19 19 19
24 23 20 21 22 22 21 22 23 22 22 21 21 20 19 19 20 20 20 20 20 20 20 20 20 20 20 20 20 20 20 20 20 20 20 20 19 19 19 19 19 19 19 19 19 19 19 19 19
24 21 20 20 21 21 21 22 22 21 21 21 20 20 19 19 19 19 20 20 20 20 20 20 20 20 20 20 20 20 20 20 20 20 19 19 19 19 19 19 19 19 19 19 19 19 19 19 19
23 20 20 21 21 21 21 21 21 20 20 19 20 19 19 19 19 19 19 20 19 19 19 19 19 19 19 19 19 19 19 19 19 19 19 19 19 19 19 19 19 19 19 19 19 19 19 19 19
25 20 20 20 20 20 21 21 20 19 19 19 19 18 18 18 19 19 19 19 19 19 19 19 19 19 19 19 19 19 19 19 19 19 19 19 19 19 19 19 19 19 19 19 19 19 19 19 19
25 19 19 20 20 20 20 21 20 19 18 18 18 18 18 18 19 19 19 19 18 18 18 18 18 18 18 19 18 18 18 19 19 19 19 19 19 19 19 19 18 18 18 19 19 19 19 19 19
23 19 20 20 20 19 19 19 19 18 18 18 18 18 18 18 19 19 18 18 18 18 18 18 18 18 18 18 18 18 18 18 18 18 18 18 18 18 18 18 18 18 18 18 19 19 19 19 19
22 20 20 21 20 20 19 18 18 18 17 17 18 18 18 18 18 18 18 17 17 17 17 17 17 17 17 18 18 18 18 18 18 18 18 18 18 18 18 18 18 18 18 18 18 19 19 19 19
21 20 21 21 21 20 19 18 18 17 17 18 18 18 18 18 18 18 17 17 17 17 17 17 17 17 17 17 17 17 17 17 18 18 18 18 18 18 18 18 18 18 18 18 18 19 19 19 18
21 20 20 20 20 19 19 18 18 18 18 18 18 18 18 17 17 17 17 17 17 17 16 16 16 16 17 17 17 17 17 17 17 17 18 18 18 18 18 18 18 18 18 18 18 18 18 18 18
22 21 20 20 20 19 18 18 18 18 18 18 18 18 17 17 17 17 16 16 16 16 16 16 16 16 16 16 16 16 17 17 17 17 17 17 17 18 18 18 18 18 18 18 18 18 18 18 18
22 20 20 20 20 19 19 18 18 18 18 18 18 17 17 17 16 16 16 16 15 15 15 15 15 15 15 15 16 16 16 16 16 17 17 17 17 17 17 17 17 18 18 18 18 18 18 18 18
21 20 19 20 20 20 19 17 18 18 18 18 17 17 17 16 16 16 15 15 15 15 15 15 15 15 15 15 15 15 15 16 16 16 17 17 17 17 17 17 17 17 18 18 18 18 18 18 18
20 20 19 20 20 20 18 17 18 18 18 17 17 17 16 16 16 15 15 15 15 14 14 14 14 14 14 14 15 15 15 15 15 16 16 16 17 17 17 17 17 17 17 17 18 17 18 18 18
21 20 20 19 20 19 17 17 17 18 18 17 17 16 16 16 15 15 15 14 14 14 14 14 14 14 14 14 14 14 15 15 15 15 15 16 16 16 16 17 17 17 17 17 17 17 17 18 18
22 20 20 20 20 19 17 16 17 18 17 17 16 16 16 16 15 15 15 14 14 14 14 13 13 13 14 14 14 14 14 15 15 15 15 15 16 16 16 16 16 17 17 17 17 17 17 17 17
21 19 19 20 20 18 16 17 17 17 17 17 16 16 16 15 15 15 14 14 14 13 13 13 13 13 13 13 13 13 14 14 14 14 14 15 15 15 16 16 16 16 16 17 17 17 17 17 17
21 20 20 19 20 18 17 16 16 17 17 16 16 16 16 15 15 14 14 14 13 13 13 13 13 13 13 13 13 13 13 14 14 14 14 14 14 15 15 15 15 16 16 16 16 16 16 16 17
21 22 21 20 18 17 17 15 16 16 16 16 15 16 15 15 15 14 14 14 13 13 13 13 12 12 12 12 12 13 13 13 13 13 14 14 14 15 15 15 15 15 16 16 16 16 16 16 16
21 22 21 20 19 17 17 15 15 15 15 15 15 15 15 15 15 14 14 13 13 13 13 13 12 12 12 12 12 12 12 13 13 13 13 14 14 14 14 15 15 15 15 15 16 16 16 16 16
22 20 19 16 16 17 17 16 15 14 15 15 15 15 15 15 14 14 14 13 13 13 13 13 12 12 12 12 12 12 12 12 13 13 13 13 14 14 14 14 15 15 15 15 15 15 15 15 16
19 17 16 17 15 16 17 16 15 15 16 16 15 15 15 15 14 14 14 13 13 13 13 13 12 12 12 12 12 12 12 12 12 13 13 13 13 14 14 14 14 14 14 15 15 15 15 15 15
20 17 16 17 16 16 17 16 15 16 17 16 16 16 15 15 15 14 14 13 13 13 13 13 12 12 12 12 12 12 12 12 12 12 12 13 13 13 13 14 14 14 14 14 14 15 15 15 15
20 18 17 16 17 16 16 16 16 16 16 16 16 16 15 15 15 14 14 14 13 13 13 13 12 12 12 12 12 12 12 12 12 12 12 12 13 13 13 13 14 14 14 14 14 14 14 15 15
20 18 15 16 17 16 16 16 14 15 15 15 15 16 15 15 15 15 14 14 13 13 13 12 12 12 12 12 12 12 12 12 12 12 12 12 12 12 13 13 13 13 14 14 14 14 14 14 14
20 19 16 14 14 15 15 15 15 15 15 14 15 16 16 15 15 15 14 14 13 13 13 12 12 12 12 12 12 12 12 12 12 12 12 12 12 12 12 12 13 13 13 13 14 14 14 14 14
20 19 16 16 16 14 14 14 16 15 16 16 16 16 16 16 15 15 14 14 14 13 13 12 12 12 12 11 11 11 11 11 12 12 12 12 12 12 12 12 12 13 13 13 13 14 14 14 14
Wind_Speed
8 5 3 1 3 5 4 3 4 7 6 8 12 12 9 7 5 5 2 11 13 10 11 12 12 12 11 11 10 10 9 9 8 8 7 7 7 6 6 6 6 6 6 6 6 6 6 6 6
5 3 1 2 5 5 4 4 9 7 7 9 11 11 9 8 7 6 4 9 13 12 12 12 12 12 11 11 10 9 9 8 8 7 7 6 6 5 5 5 5 5 5 6 5 5 5 5 4
4 3 1 3 4 4 3 3 7 9 9 7 6 7 6 5 5 3 6 11 11 11 12 12 13 12 11 11 10 9 9 8 7 7 7 6 6 5 4 5 5 5 5 5 5 5 4 4 3
2 2 4 6 7 4 3 3 6 8 9 9 8 7 5 6 3 4 10 11 11 9 12 13 13 11 11 10 10 9 9 8 7 7 6 6 6 5 5 5 5 5 5 5 5 4 4 3 2
3 4 6 6 7 6 6 7 9 11 6 9 11 7 5 7 7 8 9 9 10 8 10 12 12 11 10 10 9 9 9 8 8 7 7 7 6 6 6 6 5 5 5 5 5 4 3 2 1
4 4 5 4 4 3 5 7 8 11 8 7 7 6 4 6 7 5 5 6 6 7 7 9 11 11 11 10 10 10 9 9 9 8 8 7 7 7 7 7 6 6 6 6 5 5 4 4 3
5 4 3 3 3 4 3 5 8 7 8 8 5 4 3 7 6 4 6 7 6 6 4 3 4 5 7 9 10 10 11 11 10 10 9 9 8 8 8 8 8 7 7 7 7 6 6 5 5
5 5 4 2 3 2 4 4 7 9 7 6 6 5 3 5 5 6 8 8 7 6 5 4 3 1 2 5 9 10 11 11 12 12 11 11 11 10 10 10 10 10 10 10 9 8 8 7 7
5 5 3 3 3 1 4 5 6 7 9 8 7 5 3 4 5 8 8 8 7 7 5 4 3 4 3 4 6 9 10 11 12 12 13 13 12 12 12 12 13 13 12 12 11 10 10 9 9
5 4 1 2 4 5 6 7 6 6 8 7 6 6 6 6 7 9 9 8 7 6 5 4 5 6 5 4 4 5 6 8 10 10 12 12 12 13 12 14 16 16 15 14 13 12 11 10 9
5 5 4 4 6 7 6 7 6 5 7 4 2 4 5 7 9 9 8 6 5 4 5 4 4 5 5 4 4 3 4 5 7 9 11 11 11 11 12 11 13 15 15 13 12 12 11 9 8
6 6 5 4 5 5 5 5 6 6 3 1 2 3 6 8 8 7 7 6 5 5 5 5 4 3 4 4 4 3 3 4 5 8 9 8 6 6 7 8 10 10 11 10 9 8 10 10 10
7 6 8 11 14 12 12 9 7 3 2 2 4 6 6 7 6 5 5 6 6 7 7 6 5 4 4 3 3 3 4 4 6 7 8 8 5 5 5 5 7 9 10 9 7 7 7 7 8
9 10 10 9 10 7 10 6 5 2 2 4 4 5 5 6 6 7 7 7 7 8 8 7 6 5 5 3 4 3 4 5 6 6 7 8 7 5 4 5 5 7 9 10 9 8 7 7 6
11 9 6 3 5 6 8 7 3 2 4 4 4 4 5 6 6 6 5 6 6 6 7 8 7 6 6 6 5 5 5 5 4 5 7 7 7 6 4 4 5 6 9 9 7 7 6 6 6
5 5 3 2 5 5 7 4 1 3 5 4 5 5 5 5 5 5 5 5 6 6 7 8 9 8 7 6 5 5 6 5 5 6 6 7 8 7 4 4 5 6 7 6 5 5 5 5 4
2 3 3 2 2 4 5 4 3 3 7 6 5 5 5 5 5 5 5 6 7 7 7 8 8 8 8 7 5 5 6 5 5 6 5 6 7 7 5 4 4 5 4 5 6 5 4 4 3
4 4 4 4 2 5 6 5 4 4 7 6 4 4 5 5 4 4 5 6 7 7 7 8 8 8 8 7 5 4 5 5 5 4 5 7 6 7 5 4 4 4 4 4 4 4 4 3 3
4 6 6 3 5 5 7 6 5 4 5 5 4 4 4 3 3 4 5 6 6 7 8 8 9 9 7 6 5 5 5 5 5 4 6 6 6 6 4 4 4 4 5 5 5 4 4 3 2
8 9 4 2 4 5 6 4 3 3 4 5 4 3 3 4 5 6 6 6 6 6 7 8 9 9 8 6 5 4 4 4 4 4 5 5 5 5 4 4 4 5 4 5 6 5 4 3 4
6 5 5 5 2 4 6 1 1 1 3 4 3 3 2 3 3 4 5 6 6 6 7 7 8 9 9 8 6 5 4 4 4 4 4 4 5 4 3 3 4 4 4 5 6 6 6 5 4
2 2 5 5 4 3 5 3 4 3 1 1 1 1 1 1 2 3 5 6 6 6 6 6 7 8 8 8 6 6 5 5 5 5 4 5 4 3 3 2 3 4 4 5 6 6 5 5 5
3 1 2 3 3 0 1 4 4 2 2 2 2 2 1 1 2 3 5 5 6 6 6 6 7 7 8 8 7 6 5 5 5 5 5 5 5 4 3 2 2 3 3 5 6 6 6 5 5
2 6 7 6 5 1 4 5 5 4 5 3 2 2 2 2 2 4 5 5 5 6 6 6 7 7 8 8 8 6 7 7 7 6 5 5 4 4 4 3 2 2 2 3 5 6 7 6 6
7 6 5 5 4 4 0 3 5 5 5 5 5 4 3 2 2 4 5 6 6 7 7 6 7 8 9 9 8 8 7 6 6 6 5 5 4 4 4 3 3 2 2 3 3 4 6 7 7
1 7 6 3 4 4 3 1 5 4 4 4 5 4 3 2 2 3 4 4 5 6 6 6 7 7 8 9 8 8 7 5 4 5 5 4 4 4 4 4 3 3 2 2 2 3 4 5 6
2 2 6 6 1 1 2 2 3 1 2 3 3 3 2 2 3 3 4 4 4 5 6 5 6 6 8 8 8 8 8 7 7 7 6 4 4 4 5 4 4 3 3 2 1 2 2 3 5
2 4 5 3 1 2 3 4 5 7 6 4 4 4 4 3 3 4 4 4 4 4 4 5 5 5 6 7 7 7 8 8 7 7 7 7 6 6 6 5 5 4 3 2 0 1 2 2 3
2 3 4 4 5 4 3 6 6 9 8 7 6 6 5 4 4 4 4 4 4 4 4 4 5 5 6 7 7 8 8 8 8 8 8 7 6 7 7 6 6 5 4 3 1 0 1 2 2
3 4 5 3 1 3 3 7 4 8 8 8 7 6 5 4 4 3 3 3 3 3 3 4 4 4 5 6 6 7 7 8 8 8 8 8 8 7 7 7 6 5 5 4 3 2 1 1 2
Wind_Direction
176 159 127 123 56 49 51 14 65 66 59 64 72 78 77 55 78 122 143 145 138 144 149 145 141 138 136 136 135 135 135 135 133 131 127 124 121 119 116 113 110 110 112 111 106 101 94 85 75
138 125 147 65 82 71 31 28 59 70 119 106 73 70 69 61 68 92 106 139 140 145 149 149 146 143 142 142 140 140 140 140 142 141 138 133 130 127 125 127 125 122 121 121 117 112 106 96 79
139 159 99 61 79 108 83 39 83 69 65 74 74 52 57 53 60 93 146 146 143 147 151 153 151 149 149 149 148 148 148 148 149 151 148 147 146 144 142 140 139 137 135 131 128 126 121 109 90
117 68 44 63 67 45 79 65 80 75 51 49 85 65 58 36 42 121 141 146 142 144 152 158 156 156 156 157 158 159 159 161 162 162 162 162 165 166 163 158 152 148 149 151 145 143 139 130 116
82 75 58 59 56 45 48 47 61 71 59 58 78 83 55 13 61 109 134 141 142 145 155 164 163 166 168 170 171 173 175 177 178 179 179 181 182 183 182 177 173 168 165 164 162 166 170 170 177
65 68 74 76 68 55 48 37 62 70 68 53 65 88 69 21 48 72 103 112 123 137 150 166 173 176 181 184 186 189 191 193 194 194 196 196 197 198 195 191 189 185 184 182 181 189 196 201 218
106 90 97 111 88 48 50 57 49 63 54 26 16 74 46 8 18 60 79 80 76 84 95 124 174 188 197 199 201 203 204 206 207 207 208 208 209 209 206 204 202 201 201 200 199 205 211 216 229
123 100 80 71 101 56 9 58 58 46 48 31 35 65 27 334 7 52 59 57 60 57 50 38 25 346 248 230 223 219 216 217 217 216 216 215 215 216 217 217 216 214 211 210 211 214 219 225 236
88 78 112 178 164 83 13 83 68 60 67 55 53 64 39 359 29 56 54 45 43 42 34 24 1 331 305 262 240 237 231 229 228 226 225 222 220 221 224 226 224 223 220 217 218 221 225 231 241
77 100 140 189 145 122 57 57 87 68 55 46 41 35 33 30 39 46 47 40 32 22 19 19 1 345 323 293 268 251 242 243 238 232 230 227 223 223 228 230 229 227 225 222 222 225 231 236 243
80 118 124 97 130 120 88 57 45 97 57 39 41 16 25 36 40 44 43 36 24 10 8 5 350 349 348 332 314 285 276 270 255 244 236 232 230 229 231 228 232 230 226 222 224 226 231 234 239
87 69 99 104 111 93 87 95 67 65 112 145 91 57 48 41 37 37 35 25 10 7 356 345 339 341 347 347 332 304 284 265 257 252 245 234 229 228 226 222 218 214 213 210 216 220 228 235 240
103 108 93 96 90 93 96 93 99 81 124 92 75 60 51 48 41 33 30 21 10 3 353 344 350 350 342 335 320 322 293 277 267 265 257 238 226 228 223 220 215 211 207 208 214 220 226 232 237
124 118 118 116 109 101 99 90 88 94 99 84 70 54 44 41 40 32 22 15 8 2 353 344 353 351 345 334 316 306 300 293 286 276 270 255 235 227 218 216 213 211 210 214 216 218 222 228 229
111 112 106 118 117 136 103 61 70 139 105 79 60 52 45 39 40 31 17 9 1 354 351 346 348 355 343 332 317 318 303 294 286 283 282 272 252 234 222 217 214 214 210 211 216 224 226 230 227
96 98 128 203 157 156 104 106 244 140 108 80 58 59 51 41 38 21 17 9 2 356 350 345 351 344 333 325 313 312 308 296 287 287 286 278 269 253 234 225 220 212 205 203 205 214 224 227 219
111 158 184 202 162 124 112 150 204 140 107 94 79 70 60 45 29 16 15 10 4 359 349 344 340 338 331 322 314 311 311 299 292 293 290 284 277 268 248 235 228 213 201 203 211 204 206 215 215
214 189 166 177 157 113 121 157 180 140 115 107 91 77 60 45 17 9 12 11 8 1 355 348 343 337 332 324 318 314 316 310 302 293 286 283 277 267 248 235 229 215 205 201 200 199 200 200 199
146 132 137 159 148 121 143 162 176 150 115 105 92 74 53 25 357 4 6 10 5 359 354 349 346 341 340 334 328 322 319 313 309 297 296 291 284 271 249 243 227 217 212 208 198 191 195 202 177
97 106 115 142 154 128 147 167 184 166 139 137 125 101 57 17 7 1 359 0 357 349 345 347 345 340 338 329 313 290 291 290 289 295 311 307 298 282 257 233 227 219 211 208 200 191 182 186 175
84 131 167 176 125 104 121 80 211 151 111 110 109 113 70 40 11 348 346 346 344 342 339 343 337 336 334 333 329 328 324 315 324 322 322 313 312 302 278 243 229 220 208 208 207 199 186 187 187
134 170 155 150 136 205 163 199 234 192 132 112 125 104 70 21 350 335 335 338 337 331 330 333 334 336 335 338 339 341 339 323 306 305 308 316 322 313 304 264 233 223 213 210 214 207 196 182 186
194 214 140 154 147 7 165 150 254 183 211 239 206 181 204 252 324 330 327 325 327 328 332 334 334 337 336 337 336 334 329 314 310 315 321 325 325 317 319 302 258 234 223 219 212 202 196 195 187
72 35 31 51 74 317 237 163 238 226 210 206 204 201 223 263 310 323 325 327 328 330 335 339 340 339 339 341 342 341 334 331 334 338 335 329 321 321 327 319 299 263 234 227 219 205 197 201 195
65 68 27 4 10 261 269 130 237 228 196 180 184 203 226 248 292 317 325 329 330 334 339 341 344 342 342 346 348 346 340 339 339 332 330 332 326 322 321 327 318 299 259 236 220 205 199 197 193
156 135 147 201 236 280 2 203 250 220 181 163 172 193 207 242 274 300 309 316 321 328 337 343 345 340 343 348 346 347 350 348 342 337 340 336 327 322 329 334 327 318 297 263 222 208 204 194 197
86 128 171 146 193 329 299 297 302 203 177 176 185 185 209 237 256 284 301 312 318 325 330 336 342 342 345 348 347 351 356 358 354 352 355 350 340 345 349 347 344 339 331 309 231 214 206 193 195
149 142 79 96 126 305 287 244 229 210 209 199 194 202 220 237 257 280 292 300 306 316 326 338 344 344 344 353 356 3 358 358 358 3 2 358 356 357 354 351 352 355 350 341 316 227 211 187 194
29 62 93 116 149 158 264 268 221 195 193 191 202 209 214 225 243 269 282 293 302 321 331 343 349 353 356 358 357 3 2 1 6 9 5 2 2 5 5 359 359 359 356 351 355 288 184 178 174
152 147 135 139 233 168 195 266 252 182 184 184 199 211 211 214 231 248 267 302 316 321 325 337 348 357 358 1 6 6 3 4 10 8 3 4 8 9 8 8 11 10 6 9 22 27 48 150 154
Height
1537 1536 1537 1538 1540 1547 1548 1540 1533 1532 1533 1534 1532 1534 1538 1542 1546 1553 1550 1550 1551 1552 1553 1554 1555 1556 1556 1556 1557 1557 1557 1557 1558 1558 1558 1559 1559 1559 1559 1559 1559 1559 1559 1559 1560 1560 1560 1560 1560
1537 1536 1538 1539 1546 1559 1553 1541 1537 1534 1535 1534 1535 1538 1540 1544 1547 1548 1549 1551 1552 1553 1554 1555 1555 1556 1556 1556 1557 1557 1557 1557 1557 1558 1558 1558 1558 1558 1558 1558 1559 1559 1559 1559 1559 1559 1559 1560 1560
1538 1538 1540 1541 1548 1555 1552 1542 1538 1537 1536 1535 1539 1542 1544 1548 1549 1550 1551 1552 1553 1554 1555 1555 1556 1556 1556 1556 1556 1556 1557 1557 1557 1557 1557 1557 1558 1558 1558 1558 1558 1558 1558 1558 1559 1559 1559 1559 1560
1538 1539 1541 1546 1551 1548 1546 1542 1538 1537 1538 1539 1541 1546 1549 1552 1551 1551 1552 1553 1554 1554 1555 1556 1556 1556 1556 1556 1556 1556 1556 1556 1556 1556 1557 1557 1557 1557 1557 1557 1557 1558 1558 1558 1558 1558 1559 1559 1560
1538 1540 1547 1554 1553 1549 1546 1543 1541 1541 1543 1545 1544 1549 1553 1554 1552 1553 1553 1554 1554 1554 1555 1556 1556 1556 1556 1556 1556 1556 1556 1556 1556 1556 1556 1556 1556 1556 1556 1556 1557 1557 1557 1557 1557 1558 1558 1559 1559
1539 1542 1556 1562 1557 1551 1548 1547 1545 1546 1548 1548 1549 1551 1556 1556 1554 1554 1554 1554 1555 1555 1555 1555 1555 1556 1555 1555 1555 1555 1555 1555 1555 1555 1555 1555 1555 1555 1555 1555 1556 1556 1556 1556 1556 1557 1557 1558 1558
1541 1547 1557 1559 1557 1554 1551 1550 1550 1551 1551 1552 1552 1554 1557 1557 1556 1555 1555 1555 1555 1555 1555 1555 1555 1555 1555 1555 1555 1554 1554 1554 1554 1554 1554 1554 1554 1554 1554 1554 1554 1555 1555 1555 1555 1556 1556 1557 1558
1540 1547 1557 1560 1559 1557 1553 1552 1554 1553 1555 1556 1555 1557 1559 1559 1558 1557 1556 1555 1555 1555 1555 1554 1554 1554 1554 1553 1553 1553 1553 1552 1552 1553 1552 1552 1552 1552 1553 1553 1553 1553 1553 1554 1554 1555 1555 1556 1557
1541 1552 1561 1560 1559 1558 1555 1554 1557 1560 1558 1559 1559 1560 1561 1560 1559 1557 1556 1556 1555 1555 1554 1554 1553 1552 1552 1551 1551 1551 1551 1550 1550 1550 1550 1551 1550 1551 1551 1551 1551 1552 1552 1552 1553 1553 1554 1554 1555
1541 1556 1557 1554 1554 1557 1557 1556 1559 1562 1561 1562 1562 1562 1562 1561 1559 1557 1556 1556 1555 1555 1554 1553 1552 1551 1550 1549 1549 1548 1548 1548 1548 1548 1548 1548 1548 1548 1548 1549 1549 1550 1550 1550 1551 1552 1552 1553 1554
1543 1552 1553 1554 1554 1556 1558 1560 1561 1562 1564 1565 1564 1563 1562 1561 1559 1558 1557 1557 1556 1555 1553 1552 1550 1549 1548 1547 1546 1545 1545 1545 1545 1545 1545 1545 1545 1546 1546 1546 1547 1547 1548 1548 1549 1550 1551 1552 1553
1546 1551 1552 1554 1556 1557 1559 1562 1564 1564 1567 1566 1565 1564 1563 1561 1560 1559 1558 1557 1556 1554 1552 1551 1549 1547 1546 1544 1543 1542 1542 1542 1541 1542 1542 1542 1542 1542 1543 1544 1545 1545 1546 1546 1547 1548 1549 1550 1552
1548 1554 1556 1557 1557 1559 1561 1563 1565 1567 1567 1567 1566 1565 1563 1562 1561 1560 1558 1557 1555 1553 1551 1549 1547 1545 1543 1541 1540 1539 1538 1538 1538 1538 1538 1538 1538 1538 1539 1540 1541 1542 1543 1544 1545 1546 1547 1549 1550
1548 1553 1556 1558 1558 1562 1562 1566 1566 1568 1567 1567 1566 1565 1564 1563 1562 1560 1558 1556 1554 1552 1549 1547 1545 1543 1541 1539 1537 1536 1535 1534 1534 1533 1533 1533 1534 1534 1535 1536 1536 1538 1540 1542 1543 1544 1545 1547 1548
1549 1554 1559 1560 1559 1562 1562 1568 1568 1568 1568 1567 1567 1566 1565 1564 1562 1560 1558 1556 1553 1550 1548 1545 1542 1540 1538 1535 1534 1532 1531 1530 1529 1529 1529 1529 1529 1530 1531 1532 1533 1534 1536 1538 1539 1541 1542 1544 1545
1552 1558 1564 1560 1559 1561 1566 1575 1569 1568 1568 1568 1567 1566 1565 1564 1562 1560 1558 1555 1552 1549 1546 1543 1540 1537 1535 1532 1530 1528 1527 1526 1525 1525 1524 1525 1525 1526 1527 1527 1529 1530 1532 1533 1535 1537 1539 1540 1542
1556 1564 1564 1561 1558 1560 1565 1572 1569 1568 1567 1568 1567 1566 1565 1564 1562 1560 1557 1554 1551 1548 1544 1541 1538 1534 1532 1529 1527 1525 1523 1521 1521 1520 1520 1520 1520 1521 1521 1523 1524 1526 1527 1529 1531 1532 1534 1536 1539
1560 1561 1562 1563 1559 1561 1566 1570 1568 1567 1567 1568 1567 1566 1565 1563 1562 1559 1556 1553 1550 1547 1543 1539 1535 1532 1529 1526 1523 1521 1519 1518 1516 1516 1515 1515 1516 1516 1517 1518 1519 1521 1523 1524 1526 1528 1530 1533 1535
1547 1555 1561 1561 1558 1563 1568 1570 1569 1568 1567 1567 1567 1566 1565 1563 1561 1559 1555 1552 1549 1545 1541 1537 1533 1530 1526 1523 1520 1517 1515 1514 1513 1512 1511 1511 1511 1511 1512 1513 1514 1516 1517 1519 1521 1523 1526 1528 1531
1549 1559 1562 1560 1558 1563 1570 1571 1569 1568 1567 1567 1567 1566 1565 1563 1560 1558 1555 1551 1547 1544 1540 1536 1532 1528 1525 1521 1518 1516 1513 1511 1509 1508 1508 1507 1507 1507 1507 1508 1509 1511 1512 1514 1516 1518 1520 1524 1527
1554 1558 1560 1561 1560 1563 1570 1575 1572 1569 1568 1568 1567 1566 1564 1562 1560 1557 1554 1550 1547 1543 1539 1535 1532 1528 1524 1520 1517 1514 1511 1508 1507 1505 1504 1504 1504 1503 1503 1504 1505 1506 1508 1509 1511 1514 1516 1519 1522
1556 1551 1552 1557 1566 1573 1570 1585 1575 1570 1569 1568 1567 1565 1564 1562 1559 1556 1553 1550 1546 1542 1539 1535 1531 1527 1523 1519 1516 1512 1509 1506 1505 1503 1502 1501 1500 1500 1500 1501 1501 1502 1503 1505 1507 1509 1511 1514 1517
1551 1548 1551 1555 1563 1571 1570 1581 1579 1571 1571 1568 1566 1565 1563 1561 1559 1556 1553 1549 1546 1542 1538 1535 1531 1527 1523 1519 1515 1512 1509 1506 1504 1502 1500 1498 1498 1498 1497 1497 1498 1499 1499 1501 1502 1504 1506 1509 1512
1547 1552 1556 1563 1571 1580 1571 1578 1580 1574 1568 1566 1565 1564 1562 1561 1558 1556 1553 1549 1546 1542 1538 1534 1530 1527 1522 1519 1515 1511 1508 1505 1502 1500 1498 1497 1496 1495 1495 1494 1495 1495 1496 1497 1498 1500 1502 1504 1507
1553 1568 1582 1582 1589 1584 1569 1574 1576 1566 1564 1564 1564 1563 1562 1560 1558 1555 1552 1549 1545 1542 1538 1534 1530 1527 1523 1519 1515 1511 1508 1505 1502 1499 1497 1496 1494 1493 1492 1492 1492 1492 1492 1493 1494 1496 1498 1500 1502
1555 1566 1583 1590 1591 1584 1571 1575 1572 1563 1562 1563 1562 1562 1561 1559 1557 1555 1552 1549 1545 1542 1538 1534 1531 1527 1523 1519 1515 1512 1508 1505 1502 1500 1497 1496 1494 1492 1491 1490 1489 1489 1490 1490 1491 1492 1494 1496 1498
1555 1562 1564 1578 1578 1584 1580 1574 1568 1563 1563 1563 1562 1561 1560 1559 1557 1554 1552 1549 1546 1542 1539 1535 1531 1528 1524 1520 1516 1513 1509 1506 1503 1501 1498 1496 1493 1491 1490 1489 1488 1487 1487 1487 1488 1489 1491 1492 1494
1552 1556 1569 1575 1583 1590 1580 1577 1577 1566 1564 1562 1561 1560 1559 1558 1556 1554 1552 1549 1546 1543 1539 1536 1532 1529 1525 1521 1518 1514 1511 1507 1504 1501 1499 1496 1493 1491 1489 1488 1486 1485 1485 1485 1486 1486 1488 1490 1492
1556 1558 1567 1577 1580 1589 1591 1581 1560 1559 1559 1559 1559 1558 1558 1557 1555 1553 1551 1549 1546 1543 1540 1537 1533 1530 1526 1523 1519 1515 1512 1508 1505 1502 1500 1497 1494 1492 1489 1487 1485 1484 1483 1483 1483 1484 1486 1487 1489
1552 1556 1565 1576 1577 1581 1587 1580 1554 1554 1555 1556 1557 1557 1556 1556 1554 1553 1551 1549 1546 1544 1541 1537 1534 1531 1527 1524 1520 1517 1513 1510 1507 1504 1501 1498 1495 1492 1490 1488 1485 1484 1483 1482 1482 1483 1484 1486 1487